STARLINK-1376 (45570 NORAD) Tracking and Keplerian Element Data

This shows tracking and keplerian element data for the satellite.

Feedback or suggestion? Click here.




ElementValue
Catalog45570
NameSTARLINK-1376
Epoch Orbit177
Epoch Day193.91667824
Epoch Year2020
RAAN6.5455
Inclination52.999
Eccentricity0.0001271
Argument of Perigee72.0925
Mean Anonmoly359.1437
Mean Motion15.40303791
Decay Rate-0.011578
L11 45570U 20025AR 20193.91667824 -.01157800 00000-0 -31019-1 0 9997
L22 45570 52.9990 6.5455 0001271 72.0925 359.1437 15.40303791 1778

Live tracking and technical data element details for STARLINK-1376 (NORAD 45570). STARLINK-1376 can be tracked NOW for your location showing map with azimuth and elevation plus other details from your city location.

Track the satellite on the map from your city or location and see movement details for azimuth, elevation, latitude, longitude, range, height, and movement on the map or in text.







IsCatalogInMostPopularTable: catalog: 45570, numindb: 23
Update: records affected: 1



GetName: 45570 STARLINK-1376

Hit Count: updated at: Mon, 13 Jul 2020 05:14:01 GMT